Location: Tel Aviv
(32.0670°N, 34.7670°E)
Time: 08:51:57
(UTC+02:00)

Transit 2A Rocket - Pass Details

Date: 07 December 2023
Orbit: 590 x 905 km, 66.7° (Epoch: 01 March)

Event Time Altitude Azimuth Distance (km) Brightness Sun altitude
Exits shadow 06:01:44 - 328° (NNW) 2,697 7.3 -5.9°
Reaches altitude 10° 06:03:32 10° 325° (NW) 1,986 6.6 -5.6°
Maximum altitude 06:07:54 57° 247° (WSW) 764 4.8 -4.7°
Drops below altitude 10° 06:12:36 10° 169° (S) 2,131 7.9 -3.8°
Sets 06:15:03 0° 165° (SSE) 3,098 8.8 -3.3°
